Location: Unspecified
(38.9820°N, 94.4650°W)
Time: 07:38:36
(UTC-05:00)

Resurs 1-4 Rocket - Visible Passes

Search period start: 31 March 2015 00:00
Search period end: 10 April 2015 00:00
Orbit: 800 x 815 km, 98.4° (Epoch: 30 March)

Date Brightness Start Highest point End Pass type
(mag) Time Alt. Az. Time Alt. Az. Time Alt. Az.
31 Mar 4.6 03:37:24 10° ENE 03:39:51 14° E 03:41:30 12° ESE visible
31 Mar 2.0 05:15:05 10° N 05:20:19 67° WNW 05:22:37 33° SW visible
01 Apr 2.2 04:50:36 10° NNE 04:55:51 73° E 04:57:59 37° S visible
01 Apr 3.8 06:32:24 10° NNW 06:35:11 14° WNW 06:37:43 10° W visible
02 Apr 3.1 04:26:21 10° NNE 04:31:19 42° E 04:33:21 30° SE visible
02 Apr 3.3 06:06:51 10° NNW 06:10:58 23° WNW 06:14:26 12° WSW visible
03 Apr 4.0 04:02:26 10° NE 04:06:39 25° E 04:08:42 20° SE visible
03 Apr 2.7 05:41:50 10° N 05:46:39 37° WNW 05:49:48 19° SW visible
04 Apr 4.6 03:39:11 10° ENE 03:41:52 15° E 03:44:04 12° ESE visible
04 Apr 2.1 05:17:05 10° N 05:22:17 63° WNW 05:25:10 26° SSW visible
05 Apr 2.1 04:52:34 10° NNE 04:57:51 77° ESE 05:00:31 30° S visible
06 Apr 3.0 04:28:18 10° NNE 04:33:19 45° E 04:35:53 26° SSE visible
06 Apr 3.4 06:08:54 10° NNW 06:12:55 22° WNW 06:16:48 10° WSW visible
07 Apr 3.9 04:04:20 10° NE 04:08:40 26° E 04:11:14 18° SE visible
07 Apr 2.7 05:43:51 10° N 05:48:38 36° WNW 05:52:20 15° SW visible
08 Apr 4.5 03:40:59 10° NE 03:43:53 15° E 03:46:36 11° ESE visible
08 Apr 2.1 05:19:05 10° N 05:24:16 60° WNW 05:27:41 21° SSW visible
09 Apr 2.1 04:54:32 10° NNE 04:59:49 81° ESE 05:03:03 24° S visible
